Voltar ao catálogo

STARLINK-1540

AtivoComunicaçõesVLEO
NORAD 46051·PAYLOAD·🇺🇸 United States

Lançado Aug 7, 2020 de Cape Canaveral Space Force Station

Loading…

Próximas Passagens (próximas 24 horas)

TLE

AtualizadoSource: CelesTrak SupGP

Época: Sep 15, 2026, 01:11 UTC

1 46051C 20055AA  26258.04979167  .00052642  00000+0  16925-2 0  2585
2 46051  53.1571 312.9682 0001084  89.1463 318.7468 15.31681841    11

Acompanhe STARLINK-1540 em tempo real com AllMySat

Download on the App Store